Regional Weather Roundup
Issued by NWS

Home | Current Version | Previous Version | Graphics & Text | Print | Product List | Glossary On
Versions: 1 2 3 4 5 6 7 8 9 10 11 12 13 14 15 16 17 18 19 20 21 22 23 24 25 26 27 28 29 30 31 32 33 34 35 36 37 38 39 40 41 42 43 44 45 46 47 48 49 50
000
ASUS43 KBIS 302120
RWRND

NORTH DAKOTA REGIONAL WEATHER ROUNDUP
NATIONAL WEATHER SERVICE BISMARCK ND
400 PM CDT SAT AUG 30 2014

NOTE: "FAIR" INDICATES FEW OR NO CLOUDS BELOW 12,000 FEET WITH NO
SIGNIFICANT WEATHER AND/OR OBSTRUCTIONS TO VISIBILITY.


NDZ001>003-009>011-017-302200-
NORTHWEST NORTH DAKOTA

CITY           SKY/WX    TMP DP  RH WIND       PRES   REMARKS
WILLISTON      LGT RAIN  73  57  57 SE9       29.71F
MINOT          MOSUNNY   74  50  42 SE16      29.77F
MINOT AFB      MOSUNNY   71  51  49 S12       29.76F
$$

NDZ018>021-031>035-040>046-302200-
SOUTHWEST NORTH DAKOTA

CITY           SKY/WX    TMP DP  RH WIND       PRES   REMARKS
BISMARCK       SUNNY     75  55  49 SE12      29.79F
DICKINSON      MOSUNNY   75  58  55 SE16      29.73F
GARRISON         N/A     73  54  51 S12G21    29.77F
HETTINGER ARPT SUNNY     76  58  53 SE17G26   29.75F
$$

NDZ004>008-012>016-024-026-027-054-302200-
NORTHEAST NORTH DAKOTA

CITY           SKY/WX    TMP DP  RH WIND       PRES   REMARKS
GRAND FORKS    MOSUNNY   73  49  42 E3        29.84F
GRND FRKS AFB  SUNNY     71  52  49 SE5       29.85F
DEVILS LAKE    SUNNY     70  52  52 SE12      29.82F
$$

NDZ022-023-025-028>030-036>039-047>053-302200-
SOUTHEAST NORTH DAKOTA

CITY           SKY/WX    TMP DP  RH WIND       PRES   REMARKS
FARGO          CLOUDY    71  58  63 SE6       29.85F
JAMESTOWN      PTSUNNY   70  54  56 S7        29.84F
$$



USA.gov is the U.S. government's official web portal to all federal, state and local government web resources and services.